Time,TemperatureF,DewpointF,PressureIn,WindDirection,WindDirectionDegrees,WindSpeedMPH,WindSpeedGustMPH,Humidity,HourlyPrecipIn,Conditions,Clouds,dailyrainin,SoftwareType,DateUTC
2013-07-29 00:01:00,59.0,44.0,29.90,NW,313,2.0,3.0,57,0.00,,,0.00,,2013-07-29 07:01:00,
2013-07-29 00:22:00,57.0,43.0,29.90,NW,313,1.0,2.0,60,0.00,,,0.00,,2013-07-29 07:22:00,
2013-07-29 00:43:00,56.0,44.0,29.90,NW,313,0.0,2.0,65,0.00,,,0.00,,2013-07-29 07:43:00,
2013-07-29 00:53:00,56.0,44.0,29.90,NW,313,2.0,3.0,64,0.00,,,0.00,,2013-07-29 07:53:00,
2013-07-29 01:11:00,54.0,42.0,29.91,NW,313,0.0,2.0,64,0.00,,,0.00,,2013-07-29 08:11:00,
2013-07-29 01:52:00,52.0,43.0,29.91,NW,313,2.0,3.0,71,0.00,,,0.00,,2013-07-29 08:52:00,
2013-07-29 02:02:00,52.0,43.0,29.91,NW,313,0.0,3.0,72,0.00,,,0.00,,2013-07-29 09:02:00,
2013-07-29 02:11:00,52.0,44.0,29.91,NW,313,3.0,3.0,73,0.00,,,0.00,,2013-07-29 09:11:00,
2013-07-29 02:22:00,51.0,43.0,29.91,NW,313,1.0,3.0,75,0.00,,,0.00,,2013-07-29 09:22:00,
2013-07-29 02:33:00,52.0,43.0,29.91,NW,313,3.0,5.0,71,0.00,,,0.00,,2013-07-29 09:33:00,
2013-07-29 02:43:00,52.0,43.0,29.91,NW,313,3.0,3.0,71,0.00,,,0.00,,2013-07-29 09:43:00,
2013-07-29 02:53:00,51.0,42.0,29.91,NW,313,0.0,2.0,72,0.00,,,0.00,,2013-07-29 09:53:00,
2013-07-29 03:01:00,50.0,42.0,29.91,NW,313,0.0,0.0,75,0.00,,,0.00,,2013-07-29 10:01:00,
2013-07-29 03:12:00,50.0,42.0,29.91,NW,313,0.0,0.0,75,0.00,,,0.00,,2013-07-29 10:12:00,
2013-07-29 03:43:00,48.0,40.0,29.91,NW,313,1.0,2.0,75,0.00,,,0.00,,2013-07-29 10:43:00,
2013-07-29 03:52:00,49.0,42.0,29.91,NW,313,3.0,3.0,76,0.00,,,0.00,,2013-07-29 10:52:00,
2013-07-29 04:43:00,48.0,40.0,29.92,NW,313,0.0,2.0,73,0.00,,,0.00,,2013-07-29 11:43:00,
2013-07-29 05:11:00,46.0,40.0,29.92,NW,313,1.0,2.0,79,0.00,,,0.00,,2013-07-29 12:11:00,
2013-07-29 05:33:00,45.0,40.0,29.92,NW,313,0.0,1.0,82,0.00,,,0.00,,2013-07-29 12:33:00,
2013-07-29 05:43:00,44.0,38.0,29.92,NW,313,0.0,1.0,79,0.00,,,0.00,,2013-07-29 12:43:00,
2013-07-29 06:32:00,46.0,39.0,29.93,SW,215,3.0,6.0,75,0.00,,,0.00,,2013-07-29 13:32:00,
2013-07-29 06:53:00,48.0,39.0,29.93,SSW,198,3.0,3.0,71,0.00,,,0.00,,2013-07-29 13:53:00,
2013-07-29 07:02:00,49.0,39.0,29.94,South,179,3.0,5.0,68,0.00,,,0.00,,2013-07-29 14:02:00,
2013-07-29 07:33:00,53.0,39.0,29.93,South,179,3.0,5.0,59,0.00,,,0.00,,2013-07-29 14:33:00,
2013-07-29 10:53:00,73.0,44.0,29.91,East,90,1.0,6.0,35,0.00,,,0.00,,2013-07-29 17:53:00,
2013-07-29 11:52:00,77.0,41.0,29.91,East,83,4.0,9.0,28,0.00,,,0.00,,2013-07-29 18:52:00,
2013-07-29 12:02:00,78.0,40.0,29.91,NNE,32,2.0,5.0,26,0.00,,,0.00,,2013-07-29 19:02:00,
2013-07-29 12:11:00,77.0,39.0,29.91,ENE,69,3.0,5.0,26,0.00,,,0.00,,2013-07-29 19:11:00,
2013-07-29 12:44:00,79.0,38.0,29.90,NNE,33,5.0,7.0,23,0.00,,,0.00,,2013-07-29 19:44:00,
2013-07-29 13:02:00,79.0,38.0,29.90,ENE,71,2.0,5.0,23,0.00,,,0.00,,2013-07-29 20:02:00,
2013-07-29 13:33:00,81.0,37.0,29.89,ENE,76,2.0,9.0,21,0.00,,,0.00,,2013-07-29 20:33:00,
2013-07-29 13:44:00,84.0,40.0,29.88,NNW,342,7.0,12.0,21,0.00,,,0.00,,2013-07-29 20:44:00,
2013-07-29 13:54:00,83.0,38.0,29.88,NNW,339,3.0,8.0,20,0.00,,,0.00,,2013-07-29 20:54:00,
2013-07-29 14:11:00,83.0,40.0,29.88,NE,53,5.0,12.0,22,0.00,,,0.00,,2013-07-29 21:11:00,
2013-07-29 14:52:00,85.0,38.0,29.87,NNW,347,2.0,10.0,19,0.00,,,0.00,,2013-07-29 21:52:00,
2013-07-29 15:01:00,85.0,38.0,29.86,East,79,6.0,9.0,19,0.00,,,0.00,,2013-07-29 22:01:00,
2013-07-29 15:22:00,84.0,40.0,29.86,WNW,303,5.0,8.0,21,0.00,,,0.00,,2013-07-29 22:22:00,
2013-07-29 15:33:00,84.0,37.0,29.87,North,5,3.0,6.0,19,0.00,,,0.00,,2013-07-29 22:33:00,
2013-07-29 15:43:00,84.0,37.0,29.86,North,5,3.0,8.0,19,0.00,,,0.00,,2013-07-29 22:43:00,
2013-07-29 15:53:00,83.0,38.0,29.86,NE,37,2.0,6.0,20,0.00,,,0.00,,2013-07-29 22:53:00,
2013-07-29 16:43:00,83.0,36.0,29.86,NE,51,5.0,10.0,19,0.00,,,0.00,,2013-07-29 23:43:00,
2013-07-29 16:53:00,83.0,36.0,29.86,NNE,16,5.0,8.0,19,0.00,,,0.00,,2013-07-29 23:53:00,
2013-07-29 17:22:00,83.0,36.0,29.86,North,355,3.0,10.0,19,0.00,,,0.00,,2013-07-30 00:22:00,
2013-07-29 17:43:00,84.0,37.0,29.86,NNE,21,5.0,9.0,19,0.00,,,0.00,,2013-07-30 00:43:00,
2013-07-29 18:02:00,83.0,38.0,29.86,NNE,15,4.0,9.0,20,0.00,,,0.00,,2013-07-30 01:02:00,
2013-07-29 18:32:00,85.0,38.0,29.85,North,356,3.0,7.0,19,0.00,,,0.00,,2013-07-30 01:32:00,
2013-07-29 18:52:00,85.0,37.0,29.86,WNW,291,7.0,16.0,18,0.00,,,0.00,,2013-07-30 01:52:00,
2013-07-29 19:11:00,83.0,38.0,29.87,West,281,8.0,15.0,20,0.00,,,0.00,,2013-07-30 02:11:00,
2013-07-29 19:33:00,82.0,39.0,29.87,WNW,303,7.0,15.0,22,0.00,,,0.00,,2013-07-30 02:33:00,
2013-07-29 20:01:00,78.0,42.0,29.89,WNW,286,11.0,16.0,28,0.00,,,0.00,,2013-07-30 03:01:00,
2013-07-29 20:11:00,76.0,41.0,29.90,West,280,7.0,13.0,29,0.00,,,0.00,,2013-07-30 03:11:00,
2013-07-29 20:33:00,76.0,41.0,29.90,WNW,301,6.0,13.0,29,0.00,,,0.00,,2013-07-30 03:33:00,
2013-07-29 20:43:00,75.0,41.0,29.91,NW,304,6.0,12.0,30,0.00,,,0.00,,2013-07-30 03:43:00,
2013-07-29 20:52:00,74.0,41.0,29.91,WNW,288,6.0,10.0,30,0.00,,,0.00,,2013-07-30 03:52:00,
2013-07-29 21:32:00,72.0,45.0,29.93,NW,320,6.0,12.0,38,0.00,,,0.00,,2013-07-30 04:32:00,
2013-07-29 21:43:00,70.0,46.0,29.94,WNW,291,7.0,12.0,42,0.00,,,0.00,,2013-07-30 04:43:00,
2013-07-29 22:02:00,69.0,46.0,29.95,NW,312,6.0,9.0,44,0.00,,,0.00,,2013-07-30 05:02:00,
2013-07-29 22:45:00,66.0,47.0,29.96,NNW,338,3.0,3.0,51,0.00,,,0.00,,2013-07-30 05:45:00,
2013-07-29 23:01:00,65.0,48.0,29.97,NNW,337,3.0,5.0,54,0.00,,,0.00,,2013-07-30 06:01:00,
2013-07-29 23:32:00,63.0,48.0,29.97,NNW,333,2.0,3.0,59,0.00,,,0.00,,2013-07-30 06:32:00,
2013-07-29 23:52:00,62.0,48.0,29.97,NNW,333,4.0,6.0,60,0.00,,,0.00,,2013-07-30 06:52:00,